Flag for Morocco Weather past 2 weeks in Marrakech, Morocco

Now
55 °F

Scattered clouds.


Feels Like: 54 °F
Forecast: 46 / 74 °F
Wind: 6 mph from Northeast

Location: Marrakech Airport

Current Time: Mar 1, 2015 at 11:03:54 AM

Latest Report: Mar 1, 2015 at 10:30 AM


Visibility: 4 mi

Pressure: 30.33 "Hg

Humidity: 82%

Dew point: 50 °F

Location of MarrakechLocation

Historic Weather in Marrakech — Graph

°F

Marrakech temperature yesterday

Maximum temperature yesterday: 73 °F (at 4:00 PM)
Minimum temperature yesterday: 45 °F (at 4:00 AM)
Average temperature yesterday: 56 °F

Past Weeks' High & Low Weather Summary

 TemperatureHumidityPressure
High73 °F (Feb 23, 2:30 PM)100% (Feb 15, 11:00 PM)30.42 "Hg (Feb 15, 11:00 PM)
Low41 °F (Feb 20, 5:30 AM)25% (Feb 26, 3:00 PM)29.98 "Hg (Feb 18, 2:30 PM)
Average55 °F75%30.20 "Hg
* Reported Feb 14 10:00 AM — Mar 1 10:00 AM, Marrakech, Weather by CustomWeather, © 2015

Note: Actual official high and low records may vary slightly from our data, if they occured in-between our weather recording intervals... More about our weather records

Advertising

Marrakech weather history for previous 24 hours

 ConditionsComfort  
Time TempWeatherWind HumidityBarometerVisibility
10:00 AM
Sun, Mar 1
52 °FScattered clouds.8 mph94%30.33 "Hg4 mi
9:30 AM50 °FScattered clouds.3 mph100%30.33 "Hg3 mi
9:00 AM48 °FFog.5 mph100%30.33 "Hg1 mi
8:00 AM46 °FFog.6 mph100%30.30 "Hg0 mi
7:30 AM46 °FFog.5 mph100%30.30 "Hg0 mi
7:00 AM46 °FFog.5 mph100%30.30 "Hg1 mi
6:30 AM45 °FFog.6 mph100%30.27 "Hg1 mi
6:00 AM46 °FPassing clouds.3 mph100%30.27 "Hg4 mi
5:30 AM46 °FClear.3 mph100%30.27 "Hg4 mi
5:00 AM46 °FClear.5 mph100%30.24 "Hg10 mi
4:30 AM48 °FClear.6 mph100%30.27 "Hg10 mi
4:00 AM50 °FClear.3 mph94%30.27 "Hg10 mi
3:30 AM50 °FClear.3 mph94%30.27 "Hg10 mi
3:00 AM50 °FClear.5 mph100%30.27 "Hg10 mi
2:30 AM50 °FClear.5 mph100%30.30 "Hg10 mi
2:00 AM50 °FClear.5 mph94%30.30 "Hg10 mi
1:30 AM50 °FClear.6 mph94%30.30 "Hg10 mi
12:00 AM54 °FClear.5 mph77%30.30 "Hg10 mi
11:30 PM
Sat, Feb 28
54 °FClear.5 mph77%30.30 "Hg10 mi
11:00 PM54 °FClear.7 mph77%30.30 "Hg10 mi
10:30 PM55 °FClear.3 mph77%30.33 "Hg10 mi
10:00 PM57 °FClear.6 mph77%30.33 "Hg10 mi
9:30 PM59 °FClear.7 mph72%30.33 "Hg10 mi
9:00 PM61 °FClear.9 mph68%30.33 "Hg10 mi
8:30 PM61 °FClear.6 mph63%30.33 "Hg10 mi
8:00 PM63 °FPassing clouds.7 mph56%30.30 "HgN/A
7:30 PM64 °FClear.8 mph49%30.30 "Hg10 mi
7:00 PM66 °FClear.7 mph46%30.30 "Hg10 mi
6:30 PM68 °FPassing clouds.9 mph43%30.27 "HgN/A
5:30 PM72 °FPassing clouds.8 mph31%30.27 "HgN/A
5:00 PM73 °FPassing clouds.9 mph27%30.27 "HgN/A
4:30 PM72 °FPassing clouds.9 mph29%30.24 "HgN/A
4:00 PM73 °FPassing clouds.9 mph29%30.24 "HgN/A
3:30 PM72 °FPassing clouds.5 mph41%30.24 "HgN/A
3:00 PM72 °FPassing clouds.3 mph41%30.24 "HgN/A
2:30 PM70 °FPassing clouds.6 mph46%30.27 "HgN/A
2:00 PM68 °FPassing clouds.7 mph46%30.27 "HgN/A
1:30 PM68 °FPassing clouds.7 mph46%30.30 "HgN/A
1:00 PM66 °FPassing clouds.7 mph52%30.30 "HgN/A
12:30 PM64 °FPassing clouds.7 mph64%30.33 "HgN/A
12:00 PM61 °FPassing clouds.6 mph72%30.33 "HgN/A
11:30 AM59 °FPassing clouds.7 mph77%30.33 "HgN/A
11:00 AM55 °FScattered clouds.6 mph88%30.33 "HgN/A
Weather by CustomWeather, © 2015

See weather overviewHow to use our weather pages